"Pseudo-MPEC" for P11dyrn

Created 2021 Mar 4 14:07:13 UT using Find_Orb

Click here for an explanation of pseudo-MPECs

 
 Astrometry: 
     P11dyrn  C2021 02 17J]#8Yr*QAstrometry%%0N@rc\2PC53-t86pwe@4BXGredacted;F51
     P11dyrn  C2021 02 17:Sclick?herevcmp5sY+0k6SISgwforkXnBChVeGXexplanationF51
     P11dyrn  C2021 02 17Z=1y9tGcdtBo*g+]m/j5`[mTWjwh/xFi;1C/_DrI;s#($:Pg+?N@F51

Station data:
(F51) Pan-STARRS 1, Haleakala  (N20.707235 W156.255910)  US/Hawaii.
   Observers N. Primak, A. Schultz, S. Watters, J. Thiel, T. Goggia. Measurer
   PS1 Science Consortium. 1.8-m Ritchey-Chrétien + CCD.

Orbital elements:  P11dyrn
   Perihelion 2021 Jun 28.606807 +/- 195.059 TT = 14:33:48 (JD 2459394.106807)
Epoch 2021 Feb 17.0 TT = JDT 2459262.5   Earth MOID: 0.4720   AutoNEOCP
M 320.43508540 +/- 62.905619        (J2000 ecliptic)
n   0.30062969 +/- 0.313224         Peri.  117.39175 +/- 100.26677
a   2.20689394 +/- 1.53287          Node    93.37672 +/- 22.855920
e   0.3769380 +/- 0.280809          Incl.   20.26543 +/- 23.623530
P   3.28                   H 20.6   G  0.15   U 12.0  SR
q 1.37503170 +/- 1.0795    Q 3.03875618 +/- 49.47
From 3 observations 2021 Feb. 17 (41.7 min); mean residual 0".04
Residuals in arcseconds: 
210217 F51  .02-  .03-    210217 F51  .04+  .06+    210217 F51  .02-  .03-    

Ephemerides (geocentric):
Date (UTC) HH   RA              Dec         delta   r     elong  mag " sig PA
---- -- -- --  -------------   -----------  ------ ------ -----  --- ---- ---
2021 03 04 14  07 30 16.267   +47 43 02.29  .97178 1.6933 119.2 23.0 4828  26
2021 03 04 15  07 30 15.876   +47 43 09.39  .97194 1.6931 119.1 23.0 4844  26
2021 03 04 16  07 30 15.493   +47 43 16.46  .97209 1.6929 119.1 23.0 4859  26
2021 03 04 17  07 30 15.116   +47 43 23.49  .97225 1.6927 119.1 23.0 4875  26
2021 03 04 18  07 30 14.746   +47 43 30.48  .97241 1.6925 119.0 23.0 4891  26
2021 03 04 19  07 30 14.384   +47 43 37.44  .97256 1.6923 119.0 23.0 4907  26
2021 03 04 20  07 30 14.028   +47 43 44.37  .97272 1.6921 118.9 23.0 4923  26
2021 03 04 21  07 30 13.679   +47 43 51.26  .97288 1.6920 118.9 23.0 4939  26
2021 03 04 22  07 30 13.338   +47 43 58.11  .97304 1.6918 118.9 23.0 4955  26
2021 03 04 23  07 30 13.003   +47 44 04.93  .97320 1.6916 118.8 23.0 4970  26
2021 03 05 00  07 30 12.675   +47 44 11.71  .97335 1.6914 118.8 23.0 4986  26
2021 03 05 01  07 30 12.354   +47 44 18.46  .97351 1.6912 118.8 23.0 5002  26
2021 03 05 02  07 30 12.041   +47 44 25.18  .97367 1.6910 118.7 23.0 5018  26
2021 03 05 03  07 30 11.734   +47 44 31.86  .97383 1.6908 118.7 23.0 5034  26
2021 03 05 04  07 30 11.434   +47 44 38.50  .97399 1.6907 118.6 23.0 5050  26
2021 03 05 05  07 30 11.141   +47 44 45.11  .97415 1.6905 118.6 23.0 5066  26
2021 03 05 06  07 30 10.856   +47 44 51.68  .97430 1.6903 118.6 23.0 5082  26
2021 03 05 07  07 30 10.577   +47 44 58.22  .97446 1.6901 118.5 23.0 5099  26
2021 03 05 08  07 30 10.305   +47 45 04.73  .97462 1.6899 118.5 23.0 5115  26
2021 03 05 09  07 30 10.040   +47 45 11.19  .97478 1.6897 118.4 23.0 5131  26
2021 03 05 10  07 30 09.782   +47 45 17.63  .97494 1.6895 118.4 23.0 5147  26
2021 03 05 11  07 30 09.532   +47 45 24.03  .97510 1.6894 118.4 23.0 5163  26
2021 03 05 12  07 30 09.288   +47 45 30.39  .97526 1.6892 118.3 23.0 5179  26
2021 03 05 13  07 30 09.051   +47 45 36.72  .97542 1.6890 118.3 23.0 5195  26
2021 03 05 14  07 30 08.821   +47 45 43.02  .97558 1.6888 118.3 23.0 5212  26
2021 03 05 15  07 30 08.599   +47 45 49.28  .97574 1.6886 118.2 23.0 5228  26
2021 03 05 16  07 30 08.383   +47 45 55.51  .97590 1.6884 118.2 23.0 5244  26
2021 03 05 17  07 30 08.174   +47 46 01.70  .97606 1.6882 118.1 23.0 5261  26
2021 03 05 18  07 30 07.972   +47 46 07.86  .97622 1.6880 118.1 23.0 5277  26
2021 03 05 19  07 30 07.777   +47 46 13.98  .97638 1.6879 118.1 23.0 5293  26
2021 03 05 20  07 30 07.590   +47 46 20.07  .97654 1.6877 118.0 23.0 5310  26
2021 03 05 21  07 30 07.409   +47 46 26.12  .97670 1.6875 118.0 23.0 5326  26
2021 03 05 22  07 30 07.235   +47 46 32.14  .97686 1.6873 118.0 23.0 5342  26
2021 03 05 23  07 30 07.069   +47 46 38.13  .97702 1.6871 117.9 23.0 5359  26
2021 03 06 00  07 30 06.909   +47 46 44.08  .97718 1.6869 117.9 23.0 5375  25
2021 03 06 01  07 30 06.756   +47 46 50.00  .97734 1.6867 117.8 23.0 5392  25
2021 03 06 02  07 30 06.610   +47 46 55.88  .97750 1.6866 117.8 23.0 5408  25
2021 03 06 03  07 30 06.472   +47 47 01.73  .97766 1.6864 117.8 23.0 5425  25
2021 03 06 04  07 30 06.340   +47 47 07.54  .97782 1.6862 117.7 23.0 5441  25
2021 03 06 05  07 30 06.215   +47 47 13.32  .97798 1.6860 117.7 23.0 5458  25
2021 03 06 06  07 30 06.098   +47 47 19.07  .97814 1.6858 117.7 23.0 5474  25
2021 03 06 07  07 30 05.987   +47 47 24.78  .97830 1.6856 117.6 23.0 5491  25
2021 03 06 08  07 30 05.884   +47 47 30.46  .97846 1.6855 117.6 23.0 5507  25
2021 03 06 09  07 30 05.787   +47 47 36.11  .97862 1.6853 117.5 23.0 5524  25
2021 03 06 10  07 30 05.697   +47 47 41.72  .97878 1.6851 117.5 23.0 5541  25
2021 03 06 11  07 30 05.615   +47 47 47.29  .97895 1.6849 117.5 23.0 5557  25
2021 03 06 12  07 30 05.539   +47 47 52.84  .97911 1.6847 117.4 23.0 5574  25
2021 03 06 13  07 30 05.471   +47 47 58.34  .97927 1.6845 117.4 23.0 5591  25